Torna al catalogo

STARLINK-36446

AttivoComunicazioniVLEO
NORAD 67412·PAYLOAD·🇺🇸 United States

Lanciato Jan 12, 2026 da Cape Canaveral Space Force Station

Loading…

Prossimi Passaggi (prossime 24 ore)

TLE

AggiornatoSource: CelesTrak SupGP

Epoca: Sep 15, 2026, 03:58 UTC

1 67412C 26005J   26258.16576389 -.00041617  00000+0 -15074-2 0  2588
2 67412  43.0027 247.9110 0001211 269.6390 124.4840 15.27598671    17

Traccia STARLINK-36446 in tempo reale con AllMySat

Download on the App Store